Tracking 31013 objects as of 10-Jul-2025
HD Live streaming from Space Station
objects crossing your sky now

DELTA 1 DEB

Track DELTA 1 DEB now!
10-day predictions


NORAD ID: 7170
Int'l Code: 1973-086EJ
Perigee: 1,165.5 km
Apogee: 1,322.1 km
Inclination: 101.7 °
Period: 110.2 minutes
Semi major axis: 7614 km
RCS: 0.0871 m2 (small)
Launch date: November 6, 1973
Source: United States (US)
Launch site: AIR FORCE WESTERN TEST RANGE (AFWTR)

Note: This is SATELLITE DEBRIS
Your satellite tracking list
Your tracking list is empty




NASA's NSSDC Master Catalog

Two Line Element Set (TLE):
1 07170U 73086EJ  25190.79068731  .00000941  00000-0  29250-2 0  9991
2 07170 101.6852 210.2354 0102796 144.8292  34.2648 13.06517234419432
Source of the keplerian elements: AFSPC